TAM4794 SBBR-SBVT

Flight info

Callsign TAM4794
Flight time N/A
Altitude 33000
Route SAVPU UZ32 SATBU
Aircraft A321/M-SDE3FGHIRWY/LB1

Departure

Time 2026-04-30 15:06
Airport Presidente Juscelino Kubitschek International Airport (SBBR)

Arrival

Time N/A
Airport Eurico de Aguiar Salles International Airport (SBVT)
Time Latitude Longitude Altitude Speed Heading
2026-04-30 14:42 -15.86805 -47.91757 3486 ft 0 kts 296°
2026-04-30 14:58 -15.86809 -47.91748 3487 ft 2 kts 296°
2026-04-30 14:59 -15.86823 -47.91720 3486 ft 2 kts 296°
2026-04-30 15:00 -15.86850 -47.91701 3486 ft 1 kts 358°
2026-04-30 15:00 -15.86852 -47.91701 3486 ft 0 kts 357°
2026-04-30 15:01 -15.86849 -47.91701 3486 ft 1 kts 357°
2026-04-30 15:02 -15.86825 -47.91702 3486 ft 5 kts 357°
2026-04-30 15:02 -15.86773 -47.91706 3485 ft 8 kts 355°
2026-04-30 15:03 -15.86593 -47.91806 3481 ft 11 kts 322°
2026-04-30 15:03 -15.86491 -47.91924 3477 ft 14 kts 266°
2026-04-30 15:04 -15.86505 -47.92130 3478 ft 14 kts 266°
2026-04-30 15:04 -15.86435 -47.92255 3474 ft 14 kts 56°
2026-04-30 15:05 -15.86291 -47.91788 3473 ft 79 kts 86°
2026-04-30 15:06 -15.86155 -47.89719 3693 ft 186 kts 88°
2026-04-30 15:06 -15.85995 -47.87191 4959 ft 174 kts 86°
2026-04-30 15:07 -15.85832 -47.84579 5576 ft 194 kts 86°
2026-04-30 15:07 -15.85640 -47.81609 6101 ft 222 kts 85°
2026-04-30 15:08 -15.86415 -47.78272 6563 ft 262 kts 118°
2026-04-30 15:08 -15.89273 -47.73173 8189 ft 277 kts 118°
2026-04-30 15:09 -15.91142 -47.69632 9315 ft 283 kts 117°
2026-04-30 15:09 -15.93012 -47.66001 10400 ft 288 kts 117°
2026-04-30 15:10 -15.94964 -47.62169 10939 ft 313 kts 116°
2026-04-30 15:11 -15.99157 -47.53899 12713 ft 330 kts 116°
2026-04-30 15:11 -16.01312 -47.49638 13611 ft 335 kts 116°
2026-04-30 15:12 -16.04605 -47.43124 14907 ft 343 kts 116°
2026-04-30 15:13 -16.06834 -47.38709 15732 ft 347 kts 116°
2026-04-30 15:14 -16.11371 -47.29714 17253 ft 357 kts 116°
2026-04-30 15:14 -16.14869 -47.22771 18340 ft 365 kts 116°
2026-04-30 15:16 -16.20842 -47.10898 20134 ft 376 kts 115°
2026-04-30 15:17 -16.25727 -47.01175 21502 ft 386 kts 115°
2026-04-30 15:18 -16.32016 -46.88629 23238 ft 396 kts 116°
2026-04-30 15:19 -16.35858 -46.80956 24245 ft 401 kts 116°